owner,sensor,date,latitude,longitude,vertical_datum,direction_of_sea_water_velocity,sea_water_speed,upward_sea_water_velocity,qcFlag 
TABS,ioos:station:wmo:42048:1,2005-07-01T00:00:00Z,27.9396,-96.8429,2.0,23.53053737,8.616472596,-99999.0,'11133222,11111222,99999999' 
TABS,ioos:station:wmo:42048:1,2005-07-01T00:30:00Z,27.9396,-96.8429,2.0,24.81699849,10.55468143,-99999.0,'11111222,11111222,99999999' 
TABS,ioos:station:wmo:42048:1,2005-07-01T01:00:00Z,27.9396,-96.8429,2.0,22.08586188,10.47891693,-99999.0,'11111222,11111222,99999999' 
TABS,ioos:station:wmo:42048:1,2005-07-01T01:30:00Z,27.9396,-96.8429,2.0,26.96478713,8.336264151,-99999.0,'11133222,11111222,99999999' 
TABS,ioos:station:wmo:42048:1,2005-07-01T02:00:00Z,27.9396,-96.8429,2.0,30.33296423,8.098654209,-99999.0,'11133222,11111222,99999999' 
TABS,ioos:station:wmo:42048:1,2005-07-01T02:30:00Z,27.9396,-96.8429,2.0,8.774831587,9.177412489,-99999.0,'11133222,11111222,99999999' 
TABS,ioos:station:wmo:42048:1,2005-07-01T03:00:00Z,27.9396,-96.8429,2.0,4.930176032,6.86539875,-99999.0,'11133222,11111222,99999999' 
TABS,ioos:station:wmo:42048:1,2005-07-01T03:30:00Z,27.9396,-96.8429,2.0,9.827273928,6.972302346,-99999.0,'11133222,11111222,99999999' 
TABS,ioos:station:wmo:42048:1,2005-07-01T04:00:00Z,27.9396,-96.8429,2.0,21.89636196,7.856780511,-99999.0,'11133222,11111222,99999999' 
TABS,ioos:station:wmo:42048:1,2005-07-01T04:30:00Z,27.9396,-96.8429,2.0,16.35255576,6.961609009,-99999.0,'11133222,11111222,99999999' 
TABS,ioos:station:wmo:42048:1,2005-07-01T05:00:00Z,27.9396,-96.8429,2.0,39.03064876,4.82743203,-99999.0,'11133222,11111222,99999999' 
TABS,ioos:station:wmo:42048:1,2005-07-01T05:30:00Z,27.9396,-96.8429,2.0,21.94459324,7.438978424,-99999.0,'11133222,11111222,99999999' 
TABS,ioos:station:wmo:42048:1,2005-07-01T06:00:00Z,27.9396,-96.8429,2.0,29.48064074,9.408134778,-99999.0,'11133222,11111222,99999999' 
TABS,ioos:station:wmo:42048:1,2005-07-01T06:30:00Z,27.9396,-96.8429,2.0,32.45506351,8.106053294,-99999.0,'11133222,11111222,99999999' 
TABS,ioos:station:wmo:42048:1,2005-07-01T07:00:00Z,27.9396,-96.8429,2.0,47.56180548,11.70724562,-99999.0,'11111222,11111222,99999999' 
TABS,ioos:station:wmo:42048:1,2005-07-01T07:30:00Z,27.9396,-96.8429,2.0,45.80885509,12.52410875,-99999.0,'11111222,11111222,99999999' 
TABS,ioos:station:wmo:42048:1,2005-07-01T08:00:00Z,27.9396,-96.8429,2.0,49.5256042,15.68302586,-99999.0,'11111222,11111222,99999999' 
TABS,ioos:station:wmo:42048:1,2005-07-01T08:30:00Z,27.9396,-96.8429,2.0,31.64058334,14.81165082,-99999.0,'11111222,11111222,99999999' 
TABS,ioos:station:wmo:42048:1,2005-07-01T09:00:00Z,27.9396,-96.8429,2.0,49.87559078,15.64122757,-99999.0,'11111222,11111222,99999999' 
TABS,ioos:station:wmo:42048:1,2005-07-01T09:30:00Z,27.9396,-96.8429,2.0,40.82166713,15.23622329,-99999.0,'11111222,11111222,99999999' 
TABS,ioos:station:wmo:42048:1,2005-07-01T10:00:00Z,27.9396,-96.8429,2.0,39.60180567,16.91121817,-99999.0,'11111222,11111222,99999999' 
TABS,ioos:station:wmo:42048:1,2005-07-01T10:30:00Z,27.9396,-96.8429,2.0,48.68540299,17.16161414,-99999.0,'11111222,11111222,99999999' 
TABS,ioos:station:wmo:42048:1,2005-07-01T11:00:00Z,27.9396,-96.8429,2.0,42.32560924,16.36613577,-99999.0,'11111222,11111222,99999999' 
TABS,ioos:station:wmo:42048:1,2005-07-01T11:30:00Z,27.9396,-96.8429,2.0,33.31302878,18.11690095,-99999.0,'11111222,11111222,99999999' 
TABS,ioos:station:wmo:42048:1,2005-07-01T12:00:00Z,27.9396,-96.8429,2.0,44.82994471,16.66658033,-99999.0,'11111222,11111222,99999999' 
TABS,ioos:station:wmo:42048:1,2005-07-01T12:30:00Z,27.9396,-96.8429,2.0,29.24783104,17.58134523,-99999.0,'11111222,11111222,99999999' 
TABS,ioos:station:wmo:42048:1,2005-07-01T13:00:00Z,27.9396,-96.8429,2.0,43.19507506,18.40805259,-99999.0,'11111222,11111222,99999999' 
TABS,ioos:station:wmo:42048:1,2005-07-01T13:30:00Z,27.9396,-96.8429,2.0,34.68958577,19.08181595,-99999.0,'11111222,11111222,99999999' 
TABS,ioos:station:wmo:42048:1,2005-07-01T14:00:00Z,27.9396,-96.8429,2.0,37.90503015,20.1512878,-99999.0,'11111222,11111222,99999999' 
TABS,ioos:station:wmo:42048:1,2005-07-01T14:30:00Z,27.9396,-96.8429,2.0,37.06840073,19.06211426,-99999.0,'11111222,11111222,99999999' 
TABS,ioos:station:wmo:42048:1,2005-07-01T15:00:00Z,27.9396,-96.8429,2.0,35.63453796,17.90216188,-99999.0,'11111222,11111222,99999999' 
TABS,ioos:station:wmo:42048:1,2005-07-01T15:30:00Z,27.9396,-96.8429,2.0,38.43937302,21.90821764,-99999.0,'11111222,11111222,99999999' 
TABS,ioos:station:wmo:42048:1,2005-07-01T16:00:00Z,27.9396,-96.8429,2.0,40.62670067,24.5728,-99999.0,'11111222,11111222,99999999' 
TABS,ioos:station:wmo:42048:1,2005-07-01T16:30:00Z,27.9396,-96.8429,2.0,44.76586432,25.94396462,-99999.0,'11111222,11111222,99999999' 
TABS,ioos:station:wmo:42048:1,2005-07-01T17:00:00Z,27.9396,-96.8429,2.0,43.55033974,22.91759586,-99999.0,'11111222,11111222,99999999' 
TABS,ioos:station:wmo:42048:1,2005-07-01T17:30:00Z,27.9396,-96.8429,2.0,36.04871476,25.81265194,-99999.0,'11111222,11111222,99999999' 
TABS,ioos:station:wmo:42048:1,2005-07-01T18:00:00Z,27.9396,-96.8429,2.0,38.15326848,23.66593543,-99999.0,'11111222,11111222,99999999' 
TABS,ioos:station:wmo:42048:1,2005-07-01T18:30:00Z,27.9396,-96.8429,2.0,37.31745104,29.19689025,-99999.0,'11111222,11111222,99999999' 
TABS,ioos:station:wmo:42048:1,2005-07-01T19:00:00Z,27.9396,-96.8429,2.0,39.12938932,26.68474471,-99999.0,'11111222,11111222,99999999' 
TABS,ioos:station:wmo:42048:1,2005-07-01T19:30:00Z,27.9396,-96.8429,2.0,33.48377306,26.17369863,-99999.0,'11111222,11111222,99999999' 
TABS,ioos:station:wmo:42048:1,2005-07-01T20:00:00Z,27.9396,-96.8429,2.0,40.48007482,24.58478391,-99999.0,'11111222,11111222,99999999' 
TABS,ioos:station:wmo:42048:1,2005-07-01T20:30:00Z,27.9396,-96.8429,2.0,39.68849624,25.66504627,-99999.0,'11111222,11111222,99999999' 
TABS,ioos:station:wmo:42048:1,2005-07-01T21:00:00Z,27.9396,-96.8429,2.0,42.67135585,28.01749632,-99999.0,'11111222,11111222,99999999' 
TABS,ioos:station:wmo:42048:1,2005-07-01T21:30:00Z,27.9396,-96.8429,2.0,36.94226349,28.5520227,-99999.0,'11111222,11111222,99999999' 
TABS,ioos:station:wmo:42048:1,2005-07-01T22:00:00Z,27.9396,-96.8429,2.0,37.42115497,23.91110621,-99999.0,'11111222,11111222,99999999' 
TABS,ioos:station:wmo:42048:1,2005-07-01T22:30:00Z,27.9396,-96.8429,2.0,36.42956132,23.15468419,-99999.0,'11111222,11111222,99999999' 
TABS,ioos:station:wmo:42048:1,2005-07-01T23:00:00Z,27.9396,-96.8429,2.0,38.94151452,23.51536732,-99999.0,'11111222,11111222,99999999' 
TABS,ioos:station:wmo:42048:1,2005-07-01T23:30:00Z,27.9396,-96.8429,2.0,38.30458708,23.16726138,-99999.0,'11111222,11111222,99999999' 
TABS,ioos:station:wmo:42048:1,2005-07-02T00:00:00Z,27.9396,-96.8429,2.0,39.77383396,20.72661333,-99999.0,'11111222,11111222,99999999' 
TABS,ioos:station:wmo:42048:1,2005-07-02T00:30:00Z,27.9396,-96.8429,2.0,32.27482923,26.83626278,-99999.0,'11111222,11111222,99999999' 
TABS,ioos:station:wmo:42048:1,2005-07-02T01:00:00Z,27.9396,-96.8429,2.0,37.45672107,20.89909567,-99999.0,'11111222,11111222,99999999' 
TABS,ioos:station:wmo:42048:1,2005-07-02T01:30:00Z,27.9396,-96.8429,2.0,37.0433236,23.80410889,-99999.0,'11111222,11111222,99999999' 
TABS,ioos:station:wmo:42048:1,2005-07-02T02:00:00Z,27.9396,-96.8429,2.0,37.89139197,24.68392189,-99999.0,'11111222,11111222,99999999' 
TABS,ioos:station:wmo:42048:1,2005-07-02T02:30:00Z,27.9396,-96.8429,2.0,40.65575745,27.44388456,-99999.0,'11111222,11111222,99999999' 
TABS,ioos:station:wmo:42048:1,2005-07-02T03:00:00Z,27.9396,-96.8429,2.0,34.19213763,30.39319003,-99999.0,'11111222,11111222,99999999' 
TABS,ioos:station:wmo:42048:1,2005-07-02T03:30:00Z,27.9396,-96.8429,2.0,40.53997537,24.27778614,-99999.0,'11111222,11111222,99999999' 
TABS,ioos:station:wmo:42048:1,2005-07-02T04:00:00Z,27.9396,-96.8429,2.0,33.71547298,25.15010934,-99999.0,'11111222,11111222,99999999' 
TABS,ioos:station:wmo:42048:1,2005-07-02T04:30:00Z,27.9396,-96.8429,2.0,34.13781233,27.69147883,-99999.0,'11111222,11111222,99999999' 
TABS,ioos:station:wmo:42048:1,2005-07-02T05:00:00Z,27.9396,-96.8429,2.0,40.08072791,26.1390302,-99999.0,'11111222,11111222,99999999' 
TABS,ioos:station:wmo:42048:1,2005-07-02T05:30:00Z,27.9396,-96.8429,2.0,40.94265208,27.68190203,-99999.0,'11111222,11111222,99999999' 
TABS,ioos:station:wmo:42048:1,2005-07-02T06:00:00Z,27.9396,-96.8429,2.0,41.52688446,29.41309912,-99999.0,'11111222,11111222,99999999' 
TABS,ioos:station:wmo:42048:1,2005-07-02T06:30:00Z,27.9396,-96.8429,2.0,44.0317466,30.96155681,-99999.0,'11111222,11111222,99999999' 
TABS,ioos:station:wmo:42048:1,2005-07-02T07:00:00Z,27.9396,-96.8429,2.0,44.62333088,32.25890885,-99999.0,'11111222,11111222,99999999' 
TABS,ioos:station:wmo:42048:1,2005-07-02T07:30:00Z,27.9396,-96.8429,2.0,42.14449448,29.80620741,-99999.0,'11111222,11111222,99999999' 
TABS,ioos:station:wmo:42048:1,2005-07-02T08:00:00Z,27.9396,-96.8429,2.0,42.87020239,30.63181516,-99999.0,'11111222,11111222,99999999' 
TABS,ioos:station:wmo:42048:1,2005-07-02T08:30:00Z,27.9396,-96.8429,2.0,42.78183706,31.78705711,-99999.0,'11111222,11111222,99999999' 
TABS,ioos:station:wmo:42048:1,2005-07-02T09:00:00Z,27.9396,-96.8429,2.0,42.82937593,33.2295802,-99999.0,'11111222,11111222,99999999' 
TABS,ioos:station:wmo:42048:1,2005-07-02T09:30:00Z,27.9396,-96.8429,2.0,45.39430393,29.80525625,-99999.0,'11111222,11111222,99999999' 
TABS,ioos:station:wmo:42048:1,2005-07-02T10:00:00Z,27.9396,-96.8429,2.0,35.53117345,30.13022569,-99999.0,'11111222,11111222,99999999' 
TABS,ioos:station:wmo:42048:1,2005-07-02T10:30:00Z,27.9396,-96.8429,2.0,40.5853023,30.86486676,-99999.0,'11111222,11111222,99999999' 
TABS,ioos:station:wmo:42048:1,2005-07-02T11:00:00Z,27.9396,-96.8429,2.0,33.46030262,31.1050639,-99999.0,'11111222,11111222,99999999' 
TABS,ioos:station:wmo:42048:1,2005-07-02T11:30:00Z,27.9396,-96.8429,2.0,42.8120847,27.78126707,-99999.0,'11111222,11111222,99999999' 
TABS,ioos:station:wmo:42048:1,2005-07-02T12:00:00Z,27.9396,-96.8429,2.0,36.69155848,26.32612771,-99999.0,'11111222,11111222,99999999' 
TABS,ioos:station:wmo:42048:1,2005-07-02T12:30:00Z,27.9396,-96.8429,2.0,36.93041784,28.46001581,-99999.0,'11111222,11111222,99999999' 
TABS,ioos:station:wmo:42048:1,2005-07-02T13:00:00Z,27.9396,-96.8429,2.0,41.17233925,27.53960421,-99999.0,'11111222,11111222,99999999' 
TABS,ioos:station:wmo:42048:1,2005-07-02T13:30:00Z,27.9396,-96.8429,2.0,43.04204238,26.48954511,-99999.0,'11111222,11111222,99999999' 
TABS,ioos:station:wmo:42048:1,2005-07-02T14:00:00Z,27.9396,-96.8429,2.0,45.53830639,24.84175718,-99999.0,'11111222,11111222,99999999' 
TABS,ioos:station:wmo:42048:1,2005-07-02T14:30:00Z,27.9396,-96.8429,2.0,42.16024257,27.83054617,-99999.0,'11111222,11111222,99999999' 
TABS,ioos:station:wmo:42048:1,2005-07-02T15:00:00Z,27.9396,-96.8429,2.0,35.02946525,31.44622394,-99999.0,'11111222,11111222,99999999' 
TABS,ioos:station:wmo:42048:1,2005-07-02T15:30:00Z,27.9396,-96.8429,2.0,38.5581314,33.40249691,-99999.0,'11111222,11111222,99999999' 
TABS,ioos:station:wmo:42048:1,2005-07-02T16:00:00Z,27.9396,-96.8429,2.0,38.23623613,29.77846537,-99999.0,'11111222,11111222,99999999' 
TABS,ioos:station:wmo:42048:1,2005-07-02T16:30:00Z,27.9396,-96.8429,2.0,37.0656702,31.04218098,-99999.0,'11111222,11111222,99999999' 
TABS,ioos:station:wmo:42048:1,2005-07-02T17:00:00Z,27.9396,-96.8429,2.0,34.84661565,31.60770792,-99999.0,'11111222,11111222,99999999' 
TABS,ioos:station:wmo:42048:1,2005-07-02T17:30:00Z,27.9396,-96.8429,2.0,36.48646499,29.27865605,-99999.0,'11111222,11111222,99999999' 
TABS,ioos:station:wmo:42048:1,2005-07-02T18:00:00Z,27.9396,-96.8429,2.0,35.06658103,24.59418224,-99999.0,'11111222,11111222,99999999' 
TABS,ioos:station:wmo:42048:1,2005-07-02T18:30:00Z,27.9396,-96.8429,2.0,38.75114881,29.42785925,-99999.0,'11111222,11111222,99999999' 
TABS,ioos:station:wmo:42048:1,2005-07-02T19:00:00Z,27.9396,-96.8429,2.0,46.19642323,29.80397624,-99999.0,'11111222,11111222,99999999' 
TABS,ioos:station:wmo:42048:1,2005-07-02T19:30:00Z,27.9396,-96.8429,2.0,48.51312683,29.54186521,-99999.0,'11111222,11111222,99999999' 
TABS,ioos:station:wmo:42048:1,2005-07-02T20:00:00Z,27.9396,-96.8429,2.0,43.26884794,27.61805569,-99999.0,'11111222,11111222,99999999' 
TABS,ioos:station:wmo:42048:1,2005-07-02T20:30:00Z,27.9396,-96.8429,2.0,42.56771955,28.32393334,-99999.0,'11111222,11111222,99999999' 
TABS,ioos:station:wmo:42048:1,2005-07-02T21:00:00Z,27.9396,-96.8429,2.0,41.00122758,28.28950512,-99999.0,'11111222,11111222,99999999' 
TABS,ioos:station:wmo:42048:1,2005-07-02T21:30:00Z,27.9396,-96.8429,2.0,44.30275513,33.11626338,-99999.0,'11111222,11111222,99999999' 
TABS,ioos:station:wmo:42048:1,2005-07-02T22:00:00Z,27.9396,-96.8429,2.0,40.4766857,30.39419846,-99999.0,'11111222,11111222,99999999' 
TABS,ioos:station:wmo:42048:1,2005-07-02T22:30:00Z,27.9396,-96.8429,2.0,40.8031151,27.7293076,-99999.0,'11111222,11111222,99999999' 
TABS,ioos:station:wmo:42048:1,2005-07-02T23:00:00Z,27.9396,-96.8429,2.0,44.52634568,26.51033949,-99999.0,'11111222,11111222,99999999' 
TABS,ioos:station:wmo:42048:1,2005-07-02T23:30:00Z,27.9396,-96.8429,2.0,37.32626775,27.37686797,-99999.0,'11111222,11111222,99999999' 
TABS,ioos:station:wmo:42048:1,2005-07-03T00:00:00Z,27.9396,-96.8429,2.0,40.14959228,25.17122365,-99999.0,'11111222,11111222,99999999' 
TABS,ioos:station:wmo:42048:1,2005-07-03T00:30:00Z,27.9396,-96.8429,2.0,48.77182898,24.18594013,-99999.0,'11111222,11111222,99999999' 
TABS,ioos:station:wmo:42048:1,2005-07-03T01:00:00Z,27.9396,-96.8429,2.0,47.55534995,24.10802771,-99999.0,'11111222,11111222,99999999' 
TABS,ioos:station:wmo:42048:1,2005-07-03T01:30:00Z,27.9396,-96.8429,2.0,52.16845994,25.49959215,-99999.0,'11111222,11111222,99999999' 
TABS,ioos:station:wmo:42048:1,2005-07-03T02:00:00Z,27.9396,-96.8429,2.0,38.4705845,28.35506304,-99999.0,'11111222,11111222,99999999' 
TABS,ioos:station:wmo:42048:1,2005-07-03T02:30:00Z,27.9396,-96.8429,2.0,40.75371819,31.41814921,-99999.0,'11111222,11111222,99999999' 
TABS,ioos:station:wmo:42048:1,2005-07-03T03:00:00Z,27.9396,-96.8429,2.0,36.24625462,31.96589433,-99999.0,'11111222,11111222,99999999' 
TABS,ioos:station:wmo:42048:1,2005-07-03T03:30:00Z,27.9396,-96.8429,2.0,36.42136249,34.22504931,-99999.0,'11111222,11111222,99999999' 
TABS,ioos:station:wmo:42048:1,2005-07-03T04:00:00Z,27.9396,-96.8429,2.0,36.12201842,34.3169244,-99999.0,'11111222,11111222,99999999' 
TABS,ioos:station:wmo:42048:1,2005-07-03T04:30:00Z,27.9396,-96.8429,2.0,38.34133822,38.47868631,-99999.0,'11111222,11111222,99999999' 
TABS,ioos:station:wmo:42048:1,2005-07-03T05:00:00Z,27.9396,-96.8429,2.0,38.87966968,40.72104616,-99999.0,'11111222,11111222,99999999' 
TABS,ioos:station:wmo:42048:1,2005-07-03T05:30:00Z,27.9396,-96.8429,2.0,38.73289157,36.79144466,-99999.0,'11111222,11111222,99999999' 
TABS,ioos:station:wmo:42048:1,2005-07-03T06:00:00Z,27.9396,-96.8429,2.0,38.72849549,40.45528025,-99999.0,'11111222,11111222,99999999' 
TABS,ioos:station:wmo:42048:1,2005-07-03T06:30:00Z,27.9396,-96.8429,2.0,38.35183226,41.53188895,-99999.0,'11111222,11111222,99999999' 
TABS,ioos:station:wmo:42048:1,2005-07-03T07:00:00Z,27.9396,-96.8429,2.0,37.72733004,42.50675829,-99999.0,'11111222,11111222,99999999' 
TABS,ioos:station:wmo:42048:1,2005-07-03T07:30:00Z,27.9396,-96.8429,2.0,42.48909426,40.9949875,-99999.0,'11111222,11111222,99999999' 
TABS,ioos:station:wmo:42048:1,2005-07-03T08:00:00Z,27.9396,-96.8429,2.0,44.57203681,42.5902301,-99999.0,'11111222,11111222,99999999' 
TABS,ioos:station:wmo:42048:1,2005-07-03T08:30:00Z,27.9396,-96.8429,2.0,40.56873555,43.74511858,-99999.0,'11111222,11111222,99999999' 
TABS,ioos:station:wmo:42048:1,2005-07-03T09:00:00Z,27.9396,-96.8429,2.0,44.41438948,45.65319923,-99999.0,'11111222,11111222,99999999' 
TABS,ioos:station:wmo:42048:1,2005-07-03T09:30:00Z,27.9396,-96.8429,2.0,42.77058872,44.53194022,-99999.0,'11111222,11111222,99999999' 
TABS,ioos:station:wmo:42048:1,2005-07-03T10:00:00Z,27.9396,-96.8429,2.0,43.78899629,48.84370584,-99999.0,'11111222,11111222,99999999' 
TABS,ioos:station:wmo:42048:1,2005-07-03T10:30:00Z,27.9396,-96.8429,2.0,42.03124733,47.51063249,-99999.0,'11111222,11111222,99999999' 
TABS,ioos:station:wmo:42048:1,2005-07-03T11:00:00Z,27.9396,-96.8429,2.0,44.08147487,45.86884128,-99999.0,'11111222,11111222,99999999' 
TABS,ioos:station:wmo:42048:1,2005-07-03T11:30:00Z,27.9396,-96.8429,2.0,43.24198637,43.79052409,-99999.0,'11111222,11111222,99999999' 
TABS,ioos:station:wmo:42048:1,2005-07-03T12:00:00Z,27.9396,-96.8429,2.0,48.31365437,48.56750869,-99999.0,'11111222,11111222,99999999' 
TABS,ioos:station:wmo:42048:1,2005-07-03T12:30:00Z,27.9396,-96.8429,2.0,47.63534978,51.21333518,-99999.0,'11111222,11111222,99999999' 
TABS,ioos:station:wmo:42048:1,2005-07-03T13:00:00Z,27.9396,-96.8429,2.0,47.0641514,47.31492893,-99999.0,'11111222,11111222,99999999' 
TABS,ioos:station:wmo:42048:1,2005-07-03T13:30:00Z,27.9396,-96.8429,2.0,47.64951616,47.11539027,-99999.0,'11111222,11111222,99999999' 
TABS,ioos:station:wmo:42048:1,2005-07-03T14:00:00Z,27.9396,-96.8429,2.0,45.51762175,48.5377894,-99999.0,'11111222,11111222,99999999' 
TABS,ioos:station:wmo:42048:1,2005-07-03T14:30:00Z,27.9396,-96.8429,2.0,45.74150683,47.54276917,-99999.0,'11111222,11111222,99999999' 
TABS,ioos:station:wmo:42048:1,2005-07-03T15:00:00Z,27.9396,-96.8429,2.0,45.09183155,48.5853692,-99999.0,'11111222,11111222,99999999' 
TABS,ioos:station:wmo:42048:1,2005-07-03T15:30:00Z,27.9396,-96.8429,2.0,43.70920146,48.33594522,-99999.0,'11111222,11111222,99999999' 
TABS,ioos:station:wmo:42048:1,2005-07-03T16:00:00Z,27.9396,-96.8429,2.0,44.78402172,48.74828818,-99999.0,'11111222,11111222,99999999' 
TABS,ioos:station:wmo:42048:1,2005-07-03T16:30:00Z,27.9396,-96.8429,2.0,46.72557026,45.55833403,-99999.0,'11111222,11111222,99999999' 
TABS,ioos:station:wmo:42048:1,2005-07-03T17:00:00Z,27.9396,-96.8429,2.0,41.53161032,44.764076,-99999.0,'11111222,11111222,99999999' 
TABS,ioos:station:wmo:42048:1,2005-07-03T17:30:00Z,27.9396,-96.8429,2.0,41.01563658,49.65993355,-99999.0,'11111222,11111222,99999999' 
TABS,ioos:station:wmo:42048:1,2005-07-03T18:00:00Z,27.9396,-96.8429,2.0,42.59318482,49.83842895,-99999.0,'11111222,11111222,99999999' 
TABS,ioos:station:wmo:42048:1,2005-07-03T18:30:00Z,27.9396,-96.8429,2.0,40.89173861,50.73092351,-99999.0,'11111222,11111222,99999999' 
TABS,ioos:station:wmo:42048:1,2005-07-03T19:00:00Z,27.9396,-96.8429,2.0,43.48356093,52.63425216,-99999.0,'11111222,11111222,99999999' 
TABS,ioos:station:wmo:42048:1,2005-07-03T19:30:00Z,27.9396,-96.8429,2.0,44.36858052,46.19102077,-99999.0,'11111222,11111222,99999999' 
TABS,ioos:station:wmo:42048:1,2005-07-03T20:00:00Z,27.9396,-96.8429,2.0,46.84445343,48.11525849,-99999.0,'11111222,11111222,99999999' 
TABS,ioos:station:wmo:42048:1,2005-07-03T20:30:00Z,27.9396,-96.8429,2.0,47.13419551,46.14243708,-99999.0,'11111222,11111222,99999999' 
TABS,ioos:station:wmo:42048:1,2005-07-03T21:00:00Z,27.9396,-96.8429,2.0,45.44410814,44.71170428,-99999.0,'11111222,11111222,99999999' 
TABS,ioos:station:wmo:42048:1,2005-07-03T21:30:00Z,27.9396,-96.8429,2.0,46.53848106,44.77599803,-99999.0,'11111222,11111222,99999999' 
TABS,ioos:station:wmo:42048:1,2005-07-03T22:00:00Z,27.9396,-96.8429,2.0,43.05019171,39.06905937,-99999.0,'11111222,11111222,99999999' 
TABS,ioos:station:wmo:42048:1,2005-07-03T22:30:00Z,27.9396,-96.8429,2.0,48.49437545,42.81005139,-99999.0,'11111222,11111222,99999999' 
TABS,ioos:station:wmo:42048:1,2005-07-03T23:00:00Z,27.9396,-96.8429,2.0,36.93795129,40.48602845,-99999.0,'11111222,11111222,99999999' 
TABS,ioos:station:wmo:42048:1,2005-07-03T23:30:00Z,27.9396,-96.8429,2.0,43.65957815,40.80415788,-99999.0,'11111222,11111222,99999999' 
TABS,ioos:station:wmo:42048:1,2005-07-04T00:00:00Z,27.9396,-96.8429,2.0,40.90026129,40.55027743,-99999.0,'11111222,11111222,99999999' 
TABS,ioos:station:wmo:42048:1,2005-07-04T00:30:00Z,27.9396,-96.8429,2.0,40.59465917,36.82177617,-99999.0,'11111222,11111222,99999999' 
TABS,ioos:station:wmo:42048:1,2005-07-04T01:00:00Z,27.9396,-96.8429,2.0,42.30681596,38.52330463,-99999.0,'11111222,11111222,99999999' 
TABS,ioos:station:wmo:42048:1,2005-07-04T01:30:00Z,27.9396,-96.8429,2.0,42.95044094,40.72712364,-99999.0,'11111222,11111222,99999999' 
TABS,ioos:station:wmo:42048:1,2005-07-04T02:00:00Z,27.9396,-96.8429,2.0,37.49359597,45.57469912,-99999.0,'11111222,11111222,99999999' 
TABS,ioos:station:wmo:42048:1,2005-07-04T02:30:00Z,27.9396,-96.8429,2.0,37.96449357,47.22261534,-99999.0,'11111222,11111222,99999999' 
TABS,ioos:station:wmo:42048:1,2005-07-04T03:00:00Z,27.9396,-96.8429,2.0,38.64031079,50.17394742,-99999.0,'11111222,11111222,99999999' 
TABS,ioos:station:wmo:42048:1,2005-07-04T03:30:00Z,27.9396,-96.8429,2.0,39.12805543,48.93399636,-99999.0,'11111222,11111222,99999999' 
TABS,ioos:station:wmo:42048:1,2005-07-04T04:00:00Z,27.9396,-96.8429,2.0,38.67225563,50.81113461,-99999.0,'11111222,11111222,99999999' 
TABS,ioos:station:wmo:42048:1,2005-07-04T04:30:00Z,27.9396,-96.8429,2.0,39.79982972,50.08546695,-99999.0,'11111222,11111222,99999999' 
TABS,ioos:station:wmo:42048:1,2005-07-04T05:00:00Z,27.9396,-96.8429,2.0,36.55932155,47.20869411,-99999.0,'11111222,11111222,99999999' 
TABS,ioos:station:wmo:42048:1,2005-07-04T05:30:00Z,27.9396,-96.8429,2.0,40.01499544,53.62476387,-99999.0,'11111222,11111222,99999999' 
TABS,ioos:station:wmo:42048:1,2005-07-04T06:00:00Z,27.9396,-96.8429,2.0,37.18575931,50.8107715,-99999.0,'11111222,11111222,99999999' 
TABS,ioos:station:wmo:42048:1,2005-07-04T06:30:00Z,27.9396,-96.8429,2.0,40.21844584,52.2532066,-99999.0,'11111222,11111222,99999999' 
TABS,ioos:station:wmo:42048:1,2005-07-04T07:00:00Z,27.9396,-96.8429,2.0,40.72420439,54.15247455,-99999.0,'11111222,11111222,99999999' 
TABS,ioos:station:wmo:42048:1,2005-07-04T07:30:00Z,27.9396,-96.8429,2.0,38.54613373,55.04355094,-99999.0,'11111222,11111222,99999999' 
TABS,ioos:station:wmo:42048:1,2005-07-04T08:00:00Z,27.9396,-96.8429,2.0,42.3504869,56.28930982,-99999.0,'11111222,11111222,99999999' 
TABS,ioos:station:wmo:42048:1,2005-07-04T08:30:00Z,27.9396,-96.8429,2.0,41.98238343,51.71171724,-99999.0,'11111222,11111222,99999999' 
TABS,ioos:station:wmo:42048:1,2005-07-04T09:00:00Z,27.9396,-96.8429,2.0,45.94846756,52.12090943,-99999.0,'11111222,11111222,99999999' 
TABS,ioos:station:wmo:42048:1,2005-07-04T09:30:00Z,27.9396,-96.8429,2.0,44.68347046,51.18117037,-99999.0,'11111222,11111222,99999999' 
TABS,ioos:station:wmo:42048:1,2005-07-04T10:00:00Z,27.9396,-96.8429,2.0,44.65973906,49.99333156,-99999.0,'11111222,11111222,99999999' 
TABS,ioos:station:wmo:42048:1,2005-07-04T10:30:00Z,27.9396,-96.8429,2.0,46.02858418,50.42483713,-99999.0,'11111222,11111222,99999999' 
TABS,ioos:station:wmo:42048:1,2005-07-04T11:00:00Z,27.9396,-96.8429,2.0,45.38027791,43.69308984,-99999.0,'11111222,11111222,99999999' 
TABS,ioos:station:wmo:42048:1,2005-07-04T11:30:00Z,27.9396,-96.8429,2.0,48.36763799,44.05811843,-99999.0,'11111222,11111222,99999999' 
TABS,ioos:station:wmo:42048:1,2005-07-04T12:00:00Z,27.9396,-96.8429,2.0,45.34541556,45.75771083,-99999.0,'11111222,11111222,99999999' 
TABS,ioos:station:wmo:42048:1,2005-07-04T12:30:00Z,27.9396,-96.8429,2.0,48.10001467,41.05812952,-99999.0,'11111222,11111222,99999999' 
TABS,ioos:station:wmo:42048:1,2005-07-04T13:00:00Z,27.9396,-96.8429,2.0,47.83811106,43.1298435,-99999.0,'11111222,11111222,99999999' 
TABS,ioos:station:wmo:42048:1,2005-07-04T13:30:00Z,27.9396,-96.8429,2.0,44.25851698,42.61382405,-99999.0,'11111222,11111222,99999999' 
TABS,ioos:station:wmo:42048:1,2005-07-04T14:00:00Z,27.9396,-96.8429,2.0,47.2194618,42.72715764,-99999.0,'11111222,11111222,99999999' 
TABS,ioos:station:wmo:42048:1,2005-07-04T14:30:00Z,27.9396,-96.8429,2.0,45.32857789,43.16957841,-99999.0,'11111222,11111222,99999999' 
TABS,ioos:station:wmo:42048:1,2005-07-04T15:00:00Z,27.9396,-96.8429,2.0,48.20403831,45.67270629,-99999.0,'11111222,11111222,99999999' 
TABS,ioos:station:wmo:42048:1,2005-07-04T15:30:00Z,27.9396,-96.8429,2.0,46.85030432,50.37226419,-99999.0,'11111222,11111222,99999999' 
TABS,ioos:station:wmo:42048:1,2005-07-04T16:00:00Z,27.9396,-96.8429,2.0,45.29357237,46.93836384,-99999.0,'11111222,11111222,99999999' 